Back to catalog

CZ-6A DEB

AlivePO
NORAD 56637·DEBRIS·🇨🇳 China

Launched Nov 11, 2022 from Taiyuan Satellite Launch Center

Loading…

Next Passes (next 24 hours)

TLE

FreshSource: Space-Track

Epoch: Sep 14, 2026, 05:11 UTC

1 56637U 22151AFM 26257.21655617  .00005037  00000-0  98758-3 0  9998
2 56637  98.8592 352.5648 0107195  96.0690 265.2735 14.59606024190104

Track CZ-6A DEB in real time with AllMySat

Download on the App Store